Datum;Uhrzeit;Doro;Brinck
01.01.2021;01:00;33;36
01.01.2021;02:00;31;36
01.01.2021;03:00;;32
01.01.2021;04:00;30;27
01.01.2021;05:00;27;26
01.01.2021;06:00;30;29
01.01.2021;07:00;29;30
01.01.2021;08:00;28;35
01.01.2021;09:00;31;33
01.01.2021;10:00;31;28
01.01.2021;11:00;28;23
01.01.2021;12:00;27;20
01.01.2021;13:00;26;21
01.01.2021;14:00;28;22
01.01.2021;15:00;28;23
01.01.2021;16:00;27;24
01.01.2021;17:00;29;34
01.01.2021;18:00;44;44
01.01.2021;19:00;39;46
01.01.2021;20:00;36;41
01.01.2021;21:00;35;31
01.01.2021;22:00;34;29
01.01.2021;23:00;35;34
01.01.2021;24:00:00;32;32
02.01.2021;01:00;32;36
02.01.2021;02:00;32;36
02.01.2021;03:00;30;31
02.01.2021;04:00;;19
02.01.2021;05:00;18;19
02.01.2021;06:00;26;18
02.01.2021;07:00;22;19
02.01.2021;08:00;22;19
02.01.2021;09:00;27;21
02.01.2021;10:00;24;19
02.01.2021;11:00;26;20
02.01.2021;12:00;22;19
02.01.2021;13:00;23;17
02.01.2021;14:00;27;21
02.01.2021;15:00;31;21
02.01.2021;16:00;29;21
02.01.2021;17:00;31;26
02.01.2021;18:00;36;33
02.01.2021;19:00;42;38
02.01.2021;20:00;45;42
02.01.2021;21:00;40;40
02.01.2021;22:00;35;41
02.01.2021;23:00;35;38
02.01.2021;24:00:00;37;40
03.01.2021;01:00;36;41
03.01.2021;02:00;35;40
03.01.2021;03:00;35;38
03.01.2021;04:00;32;36
03.01.2021;05:00;;35
03.01.2021;06:00;32;34
03.01.2021;07:00;31;32
03.01.2021;08:00;26;29
03.01.2021;09:00;21;23
03.01.2021;10:00;18;17
03.01.2021;11:00;20;16
03.01.2021;12:00;20;15
03.01.2021;13:00;18;13
03.01.2021;14:00;17;12
03.01.2021;15:00;19;12
03.01.2021;16:00;20;12
03.01.2021;17:00;19;12
03.01.2021;18:00;22;15
03.01.2021;19:00;22;16
03.01.2021;20:00;22;16
03.01.2021;21:00;20;15
03.01.2021;22:00;16;14
03.01.2021;23:00;16;13
03.01.2021;24:00:00;13;14
04.01.2021;01:00;13;14
04.01.2021;02:00;12;14
04.01.2021;03:00;10;14
04.01.2021;04:00;10;14
04.01.2021;05:00;12;13
04.01.2021;06:00;;17
04.01.2021;07:00;24;18
04.01.2021;08:00;27;19
04.01.2021;09:00;26;22
04.01.2021;10:00;27;23
04.01.2021;11:00;26;21
04.01.2021;12:00;24;21
04.01.2021;13:00;26;20
04.01.2021;14:00;;19
04.01.2021;15:00;25;
04.01.2021;16:00;30;22
04.01.2021;17:00;30;23
04.01.2021;18:00;28;21
04.01.2021;19:00;27;23
04.01.2021;20:00;24;23
04.01.2021;21:00;23;20
04.01.2021;22:00;22;18
04.01.2021;23:00;20;18
04.01.2021;24:00:00;18;21
05.01.2021;01:00;17;19
05.01.2021;02:00;15;18
05.01.2021;03:00;14;19
05.01.2021;04:00;12;18
05.01.2021;05:00;14;15
05.01.2021;06:00;18;15
05.01.2021;07:00;;17
05.01.2021;08:00;24;21
05.01.2021;09:00;28;21
05.01.2021;10:00;26;20
05.01.2021;11:00;25;18
05.01.2021;12:00;25;18
05.01.2021;13:00;25;17
05.01.2021;14:00;23;20
05.01.2021;15:00;27;22
05.01.2021;16:00;29;24
05.01.2021;17:00;28;24
05.01.2021;18:00;30;24
05.01.2021;19:00;29;24
05.01.2021;20:00;27;22
05.01.2021;21:00;27;24
05.01.2021;22:00;23;25
05.01.2021;23:00;21;22
05.01.2021;24:00:00;23;20
06.01.2021;01:00;19;20
06.01.2021;02:00;19;17
06.01.2021;03:00;13;13
06.01.2021;04:00;14;11
06.01.2021;05:00;13;12
06.01.2021;06:00;19;11
06.01.2021;07:00;24;15
06.01.2021;08:00;;20
06.01.2021;09:00;33;21
06.01.2021;10:00;35;27
06.01.2021;11:00;32;22
06.01.2021;12:00;31;22
06.01.2021;13:00;32;21
06.01.2021;14:00;33;21
06.01.2021;15:00;33;22
06.01.2021;16:00;34;26
06.01.2021;17:00;39;35
06.01.2021;18:00;36;35
06.01.2021;19:00;31;27
06.01.2021;20:00;27;26
06.01.2021;21:00;25;24
06.01.2021;22:00;30;31
06.01.2021;23:00;28;29
06.01.2021;24:00:00;24;31
07.01.2021;01:00;22;29
07.01.2021;02:00;26;28
07.01.2021;03:00;31;30
07.01.2021;04:00;30;29
07.01.2021;05:00;34;35
07.01.2021;06:00;36;37
07.01.2021;07:00;36;38
07.01.2021;08:00;37;39
07.01.2021;09:00;;39
07.01.2021;10:00;36;36
07.01.2021;11:00;31;33
07.01.2021;12:00;34;32
07.01.2021;13:00;32;31
07.01.2021;14:00;30;29
07.01.2021;15:00;30;30
07.01.2021;16:00;32;36
07.01.2021;17:00;35;34
07.01.2021;18:00;32;31
07.01.2021;19:00;31;25
07.01.2021;20:00;28;24
07.01.2021;21:00;30;24
07.01.2021;22:00;26;21
07.01.2021;23:00;23;19
07.01.2021;24:00:00;23;18
08.01.2021;01:00;20;20
08.01.2021;02:00;19;23
08.01.2021;03:00;19;21
08.01.2021;04:00;17;22
08.01.2021;05:00;19;20
08.01.2021;06:00;28;22
08.01.2021;07:00;29;27
08.01.2021;08:00;29;35
08.01.2021;09:00;33;41
08.01.2021;10:00;;34
08.01.2021;11:00;30;29
08.01.2021;12:00;30;28
08.01.2021;13:00;29;25
08.01.2021;14:00;30;21
08.01.2021;15:00;36;25
08.01.2021;16:00;36;25
08.01.2021;17:00;33;27
08.01.2021;18:00;37;30
08.01.2021;19:00;38;25
08.01.2021;20:00;42;33
08.01.2021;21:00;46;34
08.01.2021;22:00;37;34
08.01.2021;23:00;35;33
08.01.2021;24:00:00;33;33
09.01.2021;01:00;32;33
09.01.2021;02:00;31;33
09.01.2021;03:00;32;34
09.01.2021;04:00;32;34
09.01.2021;05:00;32;34
09.01.2021;06:00;34;35
09.01.2021;07:00;37;38
09.01.2021;08:00;34;37
09.01.2021;09:00;37;39
09.01.2021;10:00;38;39
09.01.2021;11:00;;39
09.01.2021;12:00;38;34
09.01.2021;13:00;35;30
09.01.2021;14:00;34;29
09.01.2021;15:00;36;31
09.01.2021;16:00;41;33
09.01.2021;17:00;44;38
09.01.2021;18:00;45;40
09.01.2021;19:00;46;41
09.01.2021;20:00;46;45
09.01.2021;21:00;46;45
09.01.2021;22:00;46;45
09.01.2021;23:00;45;47
09.01.2021;24:00:00;45;48
10.01.2021;01:00;46;47
10.01.2021;02:00;45;48
10.01.2021;03:00;43;48
10.01.2021;04:00;44;47
10.01.2021;05:00;44;45
10.01.2021;06:00;44;45
10.01.2021;07:00;44;44
10.01.2021;08:00;42;41
10.01.2021;09:00;42;41
10.01.2021;10:00;41;39
10.01.2021;11:00;39;39
10.01.2021;12:00;;41
10.01.2021;13:00;37;36
10.01.2021;14:00;34;35
10.01.2021;15:00;38;38
10.01.2021;16:00;42;38
10.01.2021;17:00;44;43
10.01.2021;18:00;49;52
10.01.2021;19:00;54;47
10.01.2021;20:00;55;41
10.01.2021;21:00;53;40
10.01.2021;22:00;51;42
10.01.2021;23:00;48;46
10.01.2021;24:00:00;46;45
11.01.2021;01:00;43;45
11.01.2021;02:00;35;41
11.01.2021;03:00;29;29
11.01.2021;04:00;27;28
11.01.2021;05:00;29;26
11.01.2021;06:00;24;22
11.01.2021;07:00;29;24
11.01.2021;08:00;34;29
11.01.2021;09:00;35;29
11.01.2021;10:00;35;27
11.01.2021;11:00;38;33
11.01.2021;12:00;41;38
11.01.2021;13:00;;37
11.01.2021;14:00;50;35
11.01.2021;15:00;50;42
11.01.2021;16:00;43;45
11.01.2021;17:00;49;45
11.01.2021;18:00;44;32
11.01.2021;19:00;41;34
11.01.2021;20:00;25;17
11.01.2021;21:00;21;14
11.01.2021;22:00;20;14
11.01.2021;23:00;19;13
11.01.2021;24:00:00;19;12
12.01.2021;01:00;17;11
12.01.2021;02:00;16;11
12.01.2021;03:00;16;10
12.01.2021;04:00;15;9
12.01.2021;05:00;16;9
12.01.2021;06:00;19;10
12.01.2021;07:00;24;12
12.01.2021;08:00;25;15
12.01.2021;09:00;28;14
12.01.2021;10:00;31;16
12.01.2021;11:00;33;26
12.01.2021;12:00;30;29
12.01.2021;13:00;27;21
12.01.2021;14:00;;20
12.01.2021;15:00;31;18
12.01.2021;16:00;25;19
12.01.2021;17:00;33;32
12.01.2021;18:00;36;38
12.01.2021;19:00;31;34
12.01.2021;20:00;35;34
12.01.2021;21:00;29;30
12.01.2021;22:00;24;30
12.01.2021;23:00;28;30
12.01.2021;24:00:00;27;27
13.01.2021;01:00;23;22
13.01.2021;02:00;25;20
13.01.2021;03:00;23;17
13.01.2021;04:00;25;21
13.01.2021;05:00;28;27
13.01.2021;06:00;30;28
13.01.2021;07:00;37;33
13.01.2021;08:00;41;42
13.01.2021;09:00;40;39
13.01.2021;10:00;37;34
13.01.2021;11:00;32;31
13.01.2021;12:00;31;29
13.01.2021;13:00;28;27
13.01.2021;14:00;29;25
13.01.2021;15:00;;25
13.01.2021;16:00;33;31
13.01.2021;17:00;37;38
13.01.2021;18:00;45;44
13.01.2021;19:00;45;49
13.01.2021;20:00;42;42
13.01.2021;21:00;35;39
13.01.2021;22:00;32;39
13.01.2021;23:00;33;39
13.01.2021;24:00:00;27;33
14.01.2021;01:00;21;27
14.01.2021;02:00;18;21
14.01.2021;03:00;19;19
14.01.2021;04:00;25;23
14.01.2021;05:00;23;19
14.01.2021;06:00;40;24
14.01.2021;07:00;51;37
14.01.2021;08:00;57;38
14.01.2021;09:00;59;32
14.01.2021;10:00;58;32
14.01.2021;11:00;44;32
14.01.2021;12:00;39;21
14.01.2021;13:00;39;21
14.01.2021;14:00;36;12
14.01.2021;15:00;33;11
14.01.2021;16:00;;14
14.01.2021;17:00;40;21
14.01.2021;18:00;45;22
14.01.2021;19:00;47;24
14.01.2021;20:00;35;25
14.01.2021;21:00;34;15
14.01.2021;22:00;22;18
14.01.2021;23:00;21;15
14.01.2021;24:00:00;16;12
15.01.2021;01:00;13;11
15.01.2021;02:00;19;13
15.01.2021;03:00;39;19
15.01.2021;04:00;35;24
15.01.2021;05:00;29;27
15.01.2021;06:00;31;22
15.01.2021;07:00;36;28
15.01.2021;08:00;37;28
15.01.2021;09:00;41;29
15.01.2021;10:00;35;27
15.01.2021;11:00;34;24
15.01.2021;12:00;36;24
15.01.2021;13:00;36;25
15.01.2021;14:00;35;21
15.01.2021;15:00;40;34
15.01.2021;16:00;40;34
15.01.2021;17:00;;35
15.01.2021;18:00;39;38
15.01.2021;19:00;40;32
15.01.2021;20:00;40;28
15.01.2021;21:00;34;29
15.01.2021;22:00;32;22
15.01.2021;23:00;28;17
15.01.2021;24:00:00;25;16
16.01.2021;01:00;26;26
16.01.2021;02:00;32;30
16.01.2021;03:00;32;26
16.01.2021;04:00;35;33
16.01.2021;05:00;41;38
16.01.2021;06:00;40;40
16.01.2021;07:00;39;37
16.01.2021;08:00;40;36
16.01.2021;09:00;39;35
16.01.2021;10:00;39;37
16.01.2021;11:00;41;36
16.01.2021;12:00;47;40
16.01.2021;13:00;46;38
16.01.2021;14:00;40;29
16.01.2021;15:00;36;31
16.01.2021;16:00;30;21
16.01.2021;17:00;26;18
16.01.2021;18:00;;21
16.01.2021;19:00;32;19
16.01.2021;20:00;29;18
16.01.2021;21:00;32;25
16.01.2021;22:00;31;33
16.01.2021;23:00;29;34
16.01.2021;24:00:00;25;32
17.01.2021;01:00;26;31
17.01.2021;02:00;24;31
17.01.2021;03:00;30;30
17.01.2021;04:00;33;27
17.01.2021;05:00;32;33
17.01.2021;06:00;30;37
17.01.2021;07:00;29;34
17.01.2021;08:00;31;34
17.01.2021;09:00;33;35
17.01.2021;10:00;32;34
17.01.2021;11:00;33;34
17.01.2021;12:00;34;36
17.01.2021;13:00;36;34
17.01.2021;14:00;37;34
17.01.2021;15:00;37;36
17.01.2021;16:00;37;37
17.01.2021;17:00;39;39
17.01.2021;18:00;41;38
17.01.2021;19:00;;38
17.01.2021;20:00;44;42
17.01.2021;21:00;35;38
17.01.2021;22:00;25;24
17.01.2021;23:00;21;25
17.01.2021;24:00:00;20;24
18.01.2021;01:00;19;23
18.01.2021;02:00;18;19
18.01.2021;03:00;17;16
18.01.2021;04:00;21;16
18.01.2021;05:00;23;19
18.01.2021;06:00;28;22
18.01.2021;07:00;35;25
18.01.2021;08:00;32;31
18.01.2021;09:00;34;30
18.01.2021;10:00;36;27
18.01.2021;11:00;30;
18.01.2021;12:00;;26
18.01.2021;13:00;25;20
18.01.2021;14:00;27;18
18.01.2021;15:00;28;18
18.01.2021;16:00;27;18
18.01.2021;17:00;31;21
18.01.2021;18:00;28;20
18.01.2021;19:00;26;17
18.01.2021;20:00;;14
18.01.2021;21:00;24;14
18.01.2021;22:00;23;13
18.01.2021;23:00;22;12
18.01.2021;24:00:00;20;10
19.01.2021;01:00;20;11
19.01.2021;02:00;18;10
19.01.2021;03:00;17;8
19.01.2021;04:00;22;11
19.01.2021;05:00;21;11
19.01.2021;06:00;36;12
19.01.2021;07:00;42;15
19.01.2021;08:00;40;26
19.01.2021;09:00;42;25
19.01.2021;10:00;44;25
19.01.2021;11:00;28;15
19.01.2021;12:00;23;9
19.01.2021;13:00;26;12
19.01.2021;14:00;27;11
19.01.2021;15:00;30;11
19.01.2021;16:00;28;13
19.01.2021;17:00;28;13
19.01.2021;18:00;26;12
19.01.2021;19:00;26;12
19.01.2021;20:00;23;10
19.01.2021;21:00;;7
19.01.2021;22:00;19;8
19.01.2021;23:00;20;10
19.01.2021;24:00:00;22;15
20.01.2021;01:00;19;13
20.01.2021;02:00;21;13
20.01.2021;03:00;17;15
20.01.2021;04:00;21;17
20.01.2021;05:00;25;22
20.01.2021;06:00;38;25
20.01.2021;07:00;44;26
20.01.2021;08:00;50;32
20.01.2021;09:00;50;36
20.01.2021;10:00;53;36
20.01.2021;11:00;45;25
20.01.2021;12:00;41;26
20.01.2021;13:00;47;23
20.01.2021;14:00;48;25
20.01.2021;15:00;50;29
20.01.2021;16:00;49;34
20.01.2021;17:00;43;34
20.01.2021;18:00;44;39
20.01.2021;19:00;40;37
20.01.2021;20:00;40;37
20.01.2021;21:00;37;35
20.01.2021;22:00;;25
20.01.2021;23:00;21;16
20.01.2021;24:00:00;18;10
21.01.2021;01:00;15;12
21.01.2021;02:00;15;10
21.01.2021;03:00;20;8
21.01.2021;04:00;15;9
21.01.2021;05:00;12;4
21.01.2021;06:00;16;8
21.01.2021;07:00;17;7
21.01.2021;08:00;17;9
21.01.2021;09:00;25;13
21.01.2021;10:00;31;19
21.01.2021;11:00;28;21
21.01.2021;12:00;22;15
21.01.2021;13:00;22;15
21.01.2021;14:00;24;17
21.01.2021;15:00;26;17
21.01.2021;16:00;26;15
21.01.2021;17:00;32;20
21.01.2021;18:00;31;18
21.01.2021;19:00;25;17
21.01.2021;20:00;37;24
21.01.2021;21:00;33;29
21.01.2021;22:00;29;25
21.01.2021;23:00;;18
21.01.2021;24:00:00;19;13
22.01.2021;01:00;13;8
22.01.2021;02:00;11;7
22.01.2021;03:00;12;5
22.01.2021;04:00;11;7
22.01.2021;05:00;13;9
22.01.2021;06:00;22;11
22.01.2021;07:00;37;24
22.01.2021;08:00;48;40
22.01.2021;09:00;52;42
22.01.2021;10:00;53;36
22.01.2021;11:00;33;27
22.01.2021;12:00;24;16
22.01.2021;13:00;26;17
22.01.2021;14:00;23;18
22.01.2021;15:00;19;14
22.01.2021;16:00;21;17
22.01.2021;17:00;27;23
22.01.2021;18:00;49;43
22.01.2021;19:00;62;65
22.01.2021;20:00;69;60
22.01.2021;21:00;66;59
22.01.2021;22:00;62;56
22.01.2021;23:00;58;53
22.01.2021;24:00:00;;49
23.01.2021;01:00;48;47
23.01.2021;02:00;47;41
23.01.2021;03:00;44;42
23.01.2021;04:00;43;44
23.01.2021;05:00;43;43
23.01.2021;06:00;42;42
23.01.2021;07:00;38;42
23.01.2021;08:00;37;40
23.01.2021;09:00;37;41
23.01.2021;10:00;42;37
23.01.2021;11:00;41;38
23.01.2021;12:00;37;33
23.01.2021;13:00;30;21
23.01.2021;14:00;29;19
23.01.2021;15:00;26;14
23.01.2021;16:00;37;17
23.01.2021;17:00;32;23
23.01.2021;18:00;50;33
23.01.2021;19:00;56;31
23.01.2021;20:00;51;40
23.01.2021;21:00;41;28
23.01.2021;22:00;22;17
23.01.2021;23:00;17;18
23.01.2021;24:00:00;15;12
24.01.2021;01:00;;9
24.01.2021;02:00;14;9
24.01.2021;03:00;15;11
24.01.2021;04:00;17;19
24.01.2021;05:00;13;16
24.01.2021;06:00;12;16
24.01.2021;07:00;12;13
24.01.2021;08:00;13;19
24.01.2021;09:00;17;23
24.01.2021;10:00;22;20
24.01.2021;11:00;19;18
24.01.2021;12:00;18;15
24.01.2021;13:00;18;15
24.01.2021;14:00;21;17
24.01.2021;15:00;24;17
24.01.2021;16:00;22;18
24.01.2021;17:00;26;23
24.01.2021;18:00;42;29
24.01.2021;19:00;50;43
24.01.2021;20:00;57;52
24.01.2021;21:00;54;49
24.01.2021;22:00;49;53
24.01.2021;23:00;35;37
24.01.2021;24:00:00;20;25
25.01.2021;01:00;14;22
25.01.2021;02:00;;22
25.01.2021;03:00;12;23
25.01.2021;04:00;13;24
25.01.2021;05:00;18;20
25.01.2021;06:00;41;26
25.01.2021;07:00;50;29
25.01.2021;08:00;52;28
25.01.2021;09:00;60;40
25.01.2021;10:00;61;42
25.01.2021;11:00;56;37
25.01.2021;12:00;48;39
25.01.2021;13:00;52;46
25.01.2021;14:00;53;46
25.01.2021;15:00;44;35
25.01.2021;16:00;38;32
25.01.2021;17:00;39;39
25.01.2021;18:00;53;57
25.01.2021;19:00;52;52
25.01.2021;20:00;43;44
25.01.2021;21:00;36;32
25.01.2021;22:00;34;29
25.01.2021;23:00;31;28
25.01.2021;24:00:00;25;22
26.01.2021;01:00;23;19
26.01.2021;02:00;23;19
26.01.2021;03:00;;18
26.01.2021;04:00;23;17
26.01.2021;05:00;21;15
26.01.2021;06:00;21;15
26.01.2021;07:00;26;24
26.01.2021;08:00;28;28
26.01.2021;09:00;30;28
26.01.2021;10:00;34;28
26.01.2021;11:00;30;29
26.01.2021;12:00;31;29
26.01.2021;13:00;29;27
26.01.2021;14:00;29;27
26.01.2021;15:00;28;29
26.01.2021;16:00;32;28
26.01.2021;17:00;36;38
26.01.2021;18:00;46;46
26.01.2021;19:00;48;42
26.01.2021;20:00;41;35
26.01.2021;21:00;41;42
26.01.2021;22:00;43;40
26.01.2021;23:00;41;30
26.01.2021;24:00:00;39;34
27.01.2021;01:00;34;26
27.01.2021;02:00;44;41
27.01.2021;03:00;37;25
27.01.2021;04:00;;12
27.01.2021;05:00;16;12
27.01.2021;06:00;31;11
27.01.2021;07:00;41;20
27.01.2021;08:00;42;25
27.01.2021;09:00;50;27
27.01.2021;10:00;51;36
27.01.2021;11:00;49;39
27.01.2021;12:00;51;42
27.01.2021;13:00;48;46
27.01.2021;14:00;51;37
27.01.2021;15:00;38;33
27.01.2021;16:00;37;32
27.01.2021;17:00;39;36
27.01.2021;18:00;38;36
27.01.2021;19:00;41;38
27.01.2021;20:00;40;35
27.01.2021;21:00;38;32
27.01.2021;22:00;33;29
27.01.2021;23:00;34;31
27.01.2021;24:00:00;34;33
28.01.2021;01:00;29;27
28.01.2021;02:00;22;19
28.01.2021;03:00;17;17
28.01.2021;04:00;24;25
28.01.2021;05:00;;37
28.01.2021;06:00;44;40
28.01.2021;07:00;46;36
28.01.2021;08:00;44;35
28.01.2021;09:00;40;34
28.01.2021;10:00;42;32
28.01.2021;11:00;37;29
28.01.2021;12:00;40;28
28.01.2021;13:00;35;25
28.01.2021;14:00;39;25
28.01.2021;15:00;42;26
28.01.2021;16:00;39;29
28.01.2021;17:00;37;33
28.01.2021;18:00;38;33
28.01.2021;19:00;39;33
28.01.2021;20:00;39;33
28.01.2021;21:00;38;33
28.01.2021;22:00;35;33
28.01.2021;23:00;40;35
28.01.2021;24:00:00;37;32
29.01.2021;01:00;38;35
29.01.2021;02:00;39;39
29.01.2021;03:00;44;46
29.01.2021;04:00;47;50
29.01.2021;05:00;41;47
29.01.2021;06:00;;41
29.01.2021;07:00;58;45
29.01.2021;08:00;37;31
29.01.2021;09:00;34;17
29.01.2021;10:00;28;15
29.01.2021;11:00;24;12
29.01.2021;12:00;30;12
29.01.2021;13:00;29;13
29.01.2021;14:00;23;14
29.01.2021;15:00;24;12
29.01.2021;16:00;23;13
29.01.2021;17:00;28;19
29.01.2021;18:00;26;19
29.01.2021;19:00;33;21
29.01.2021;20:00;30;21
29.01.2021;21:00;25;17
29.01.2021;22:00;24;13
29.01.2021;23:00;16;12
29.01.2021;24:00:00;14;12
30.01.2021;01:00;16;15
30.01.2021;02:00;14;15
30.01.2021;03:00;17;13
30.01.2021;04:00;19;14
30.01.2021;05:00;20;17
30.01.2021;06:00;13;12
30.01.2021;07:00;;13
30.01.2021;08:00;15;14
30.01.2021;09:00;15;14
30.01.2021;10:00;17;10
30.01.2021;11:00;18;10
30.01.2021;12:00;23;10
30.01.2021;13:00;22;9
30.01.2021;14:00;22;9
30.01.2021;15:00;21;8
30.01.2021;16:00;24;8
30.01.2021;17:00;27;8
30.01.2021;18:00;25;10
30.01.2021;19:00;21;12
30.01.2021;20:00;21;10
30.01.2021;21:00;18;10
30.01.2021;22:00;18;11
30.01.2021;23:00;22;11
30.01.2021;24:00:00;23;11
31.01.2021;01:00;19;11
31.01.2021;02:00;16;13
31.01.2021;03:00;20;13
31.01.2021;04:00;18;13
31.01.2021;05:00;21;14
31.01.2021;06:00;17;16
31.01.2021;07:00;20;20
31.01.2021;08:00;;22
31.01.2021;09:00;28;24
31.01.2021;10:00;28;22
31.01.2021;11:00;20;12
31.01.2021;12:00;16;12
31.01.2021;13:00;16;10
31.01.2021;14:00;17;9
31.01.2021;15:00;20;8
31.01.2021;16:00;19;8
31.01.2021;17:00;23;12
31.01.2021;18:00;30;19
31.01.2021;19:00;21;18
31.01.2021;20:00;19;16
31.01.2021;21:00;20;18
31.01.2021;22:00;17;16
31.01.2021;23:00;16;14
31.01.2021;24:00:00;13;18
01.02.2021;01:00;13;17
01.02.2021;02:00;11;18
01.02.2021;03:00;13;22
01.02.2021;04:00;13;19
01.02.2021;05:00;18;17
01.02.2021;06:00;26;19
01.02.2021;07:00;33;21
01.02.2021;08:00;39;25
01.02.2021;09:00;;23
01.02.2021;10:00;40;20
01.02.2021;11:00;39;23
01.02.2021;12:00;;22
01.02.2021;13:00;36;
01.02.2021;14:00;37;27
01.02.2021;15:00;42;31
01.02.2021;16:00;42;32
01.02.2021;17:00;41;34
01.02.2021;18:00;36;35
01.02.2021;19:00;35;35
01.02.2021;20:00;34;32
01.02.2021;21:00;32;32
01.02.2021;22:00;33;33
01.02.2021;23:00;32;33
01.02.2021;24:00:00;34;36
02.02.2021;01:00;36;35
02.02.2021;02:00;37;36
02.02.2021;03:00;32;29
02.02.2021;04:00;29;27
02.02.2021;05:00;32;29
02.02.2021;06:00;37;26
02.02.2021;07:00;42;26
02.02.2021;08:00;49;29
02.02.2021;09:00;59;43
02.02.2021;10:00;;42
02.02.2021;11:00;38;29
02.02.2021;12:00;40;25
02.02.2021;13:00;44;25
02.02.2021;14:00;51;31
02.02.2021;15:00;53;38
02.02.2021;16:00;46;27
02.02.2021;17:00;36;22
02.02.2021;18:00;40;22
02.02.2021;19:00;39;26
02.02.2021;20:00;42;25
02.02.2021;21:00;41;21
02.02.2021;22:00;28;15
02.02.2021;23:00;34;18
02.02.2021;24:00:00;43;19
03.02.2021;01:00;25;18
03.02.2021;02:00;27;17
03.02.2021;03:00;25;
03.02.2021;04:00;16;
03.02.2021;05:00;21;
03.02.2021;06:00;34;
03.02.2021;07:00;45;
03.02.2021;08:00;59;
03.02.2021;09:00;54;
03.02.2021;10:00;59;
03.02.2021;11:00;;
03.02.2021;12:00;64;
03.02.2021;13:00;57;
03.02.2021;14:00;51;
03.02.2021;15:00;33;
03.02.2021;16:00;23;
03.02.2021;17:00;22;
03.02.2021;18:00;23;
03.02.2021;19:00;34;
03.02.2021;20:00;37;
03.02.2021;21:00;32;
03.02.2021;22:00;26;
03.02.2021;23:00;22;
03.02.2021;24:00:00;20;
04.02.2021;01:00;15;
04.02.2021;02:00;18;
04.02.2021;03:00;17;
04.02.2021;04:00;17;
04.02.2021;05:00;18;
04.02.2021;06:00;19;
04.02.2021;07:00;24;
04.02.2021;08:00;33;
04.02.2021;09:00;41;
04.02.2021;10:00;35;
04.02.2021;11:00;29;
04.02.2021;12:00;;
04.02.2021;13:00;22;
04.02.2021;14:00;21;
04.02.2021;15:00;21;
04.02.2021;16:00;27;
04.02.2021;17:00;48;
04.02.2021;18:00;59;
04.02.2021;19:00;68;
04.02.2021;20:00;61;
04.02.2021;21:00;42;
04.02.2021;22:00;33;
04.02.2021;23:00;30;
04.02.2021;24:00:00;34;
05.02.2021;01:00;25;
05.02.2021;02:00;17;
05.02.2021;03:00;16;
05.02.2021;04:00;18;
05.02.2021;05:00;23;
05.02.2021;06:00;34;
05.02.2021;07:00;53;
05.02.2021;08:00;55;
05.02.2021;09:00;62;
05.02.2021;10:00;54;34
05.02.2021;11:00;53;35
05.02.2021;12:00;55;42
05.02.2021;13:00;;39
05.02.2021;14:00;49;36
05.02.2021;15:00;41;33
05.02.2021;16:00;43;27
05.02.2021;17:00;39;28
05.02.2021;18:00;47;33
05.02.2021;19:00;62;46
05.02.2021;20:00;64;48
05.02.2021;21:00;59;49
05.02.2021;22:00;53;50
05.02.2021;23:00;45;41
05.02.2021;24:00:00;39;35
06.02.2021;01:00;33;31
06.02.2021;02:00;25;24
06.02.2021;03:00;23;21
06.02.2021;04:00;20;28
06.02.2021;05:00;20;23
06.02.2021;06:00;22;17
06.02.2021;07:00;36;19
06.02.2021;08:00;33;21
06.02.2021;09:00;30;22
06.02.2021;10:00;27;24
06.02.2021;11:00;28;19
06.02.2021;12:00;27;14
06.02.2021;13:00;24;15
06.02.2021;14:00;;18
06.02.2021;15:00;20;16
06.02.2021;16:00;22;19
06.02.2021;17:00;23;19
06.02.2021;18:00;23;18
06.02.2021;19:00;19;15
06.02.2021;20:00;19;13
06.02.2021;21:00;21;13
06.02.2021;22:00;21;13
06.02.2021;23:00;18;13
06.02.2021;24:00:00;15;10
07.02.2021;01:00;12;9
07.02.2021;02:00;11;9
07.02.2021;03:00;13;12
07.02.2021;04:00;11;11
07.02.2021;05:00;11;8
07.02.2021;06:00;15;12
07.02.2021;07:00;18;9
07.02.2021;08:00;15;11
07.02.2021;09:00;16;12
07.02.2021;10:00;16;13
07.02.2021;11:00;14;15
07.02.2021;12:00;18;11
07.02.2021;13:00;20;9
07.02.2021;14:00;21;11
07.02.2021;15:00;;12
07.02.2021;16:00;25;14
07.02.2021;17:00;22;15
07.02.2021;18:00;27;20
07.02.2021;19:00;25;20
07.02.2021;20:00;26;17
07.02.2021;21:00;25;16
07.02.2021;22:00;24;14
07.02.2021;23:00;23;12
07.02.2021;24:00:00;17;11
08.02.2021;01:00;19;11
08.02.2021;02:00;13;16
08.02.2021;03:00;13;11
08.02.2021;04:00;16;8
08.02.2021;05:00;13;8
08.02.2021;06:00;17;9
08.02.2021;07:00;26;13
08.02.2021;08:00;28;15
08.02.2021;09:00;29;18
08.02.2021;10:00;31;19
08.02.2021;11:00;26;16
08.02.2021;12:00;25;15
08.02.2021;13:00;27;14
08.02.2021;14:00;26;14
08.02.2021;15:00;28;17
08.02.2021;16:00;;21
08.02.2021;17:00;25;17
08.02.2021;18:00;25;20
08.02.2021;19:00;25;21
08.02.2021;20:00;21;21
08.02.2021;21:00;22;19
08.02.2021;22:00;22;19
08.02.2021;23:00;20;20
08.02.2021;24:00:00;17;21
09.02.2021;01:00;15;20
09.02.2021;02:00;15;18
09.02.2021;03:00;14;21
09.02.2021;04:00;15;20
09.02.2021;05:00;20;19
09.02.2021;06:00;36;30
09.02.2021;07:00;46;35
09.02.2021;08:00;51;43
09.02.2021;09:00;54;44
09.02.2021;10:00;51;37
09.02.2021;11:00;47;26
09.02.2021;12:00;38;23
09.02.2021;13:00;34;19
09.02.2021;14:00;32;18
09.02.2021;15:00;30;18
09.02.2021;16:00;28;16
09.02.2021;17:00;;17
09.02.2021;18:00;33;19
09.02.2021;19:00;44;27
09.02.2021;20:00;43;27
09.02.2021;21:00;33;30
09.02.2021;22:00;40;32
09.02.2021;23:00;33;26
09.02.2021;24:00:00;31;26
10.02.2021;01:00;28;24
10.02.2021;02:00;31;25
10.02.2021;03:00;27;26
10.02.2021;04:00;22;27
10.02.2021;05:00;29;27
10.02.2021;06:00;42;32
10.02.2021;07:00;44;43
10.02.2021;08:00;59;45
10.02.2021;09:00;64;37
10.02.2021;10:00;56;33
10.02.2021;11:00;47;28
10.02.2021;12:00;37;18
10.02.2021;13:00;37;19
10.02.2021;14:00;42;26
10.02.2021;15:00;48;29
10.02.2021;16:00;50;32
10.02.2021;17:00;55;38
10.02.2021;18:00;;32
10.02.2021;19:00;54;28
10.02.2021;20:00;53;31
10.02.2021;21:00;46;30
10.02.2021;22:00;46;29
10.02.2021;23:00;44;31
10.02.2021;24:00:00;43;32
11.02.2021;01:00;55;39
11.02.2021;02:00;61;43
11.02.2021;03:00;59;50
11.02.2021;04:00;50;50
11.02.2021;05:00;51;51
11.02.2021;06:00;60;62
11.02.2021;07:00;72;69
11.02.2021;08:00;76;63
11.02.2021;09:00;;
11.02.2021;10:00;86;66
11.02.2021;11:00;75;53
11.02.2021;12:00;58;40
11.02.2021;13:00;45;26
11.02.2021;14:00;36;12
11.02.2021;15:00;36;13
11.02.2021;16:00;40;18
11.02.2021;17:00;48;25
11.02.2021;18:00;58;32
11.02.2021;19:00;;38